Location: Caltech
(34.1382°N, 118.1253°W)
Time: 12:18:38
(UTC-08:00)

Cosmos 1758 Rocket - Visible Passes

Search period start: 07 December 2016 00:00
Search period end: 17 December 2016 00:00
Orbit: 603 x 636 km, 82.5° (Epoch: 07 December)

Date Brightness Start Highest point End Pass type
(mag) Time Alt. Az. Time Alt. Az. Time Alt. Az.
12 Dec 6.4 06:05:43 10° NE 06:07:55 14° ENE 06:10:07 10° ESE visible
13 Dec 5.8 06:21:56 10° NNE 06:25:35 26° ENE 06:29:13 10° SE visible
16 Dec 6.4 05:37:35 10° NE 05:40:00 15° ENE 05:42:25 10° ESE visible
